#timestamp,LO_Frequency,Hit 
1503547215.2,286047009.1,N
1503547235.1,286047004.9,N
1503547236.0,286047004.9,N
1503547255.8,286047007.0,N
1503547275.6,286047006.2,N
1503547295.5,286047010.3,P
1503547315.3,286047002.9,N
1503547335.1,286047005.3,N
1503547355.9,286047003.3,N
1503547375.7,286047003.9,N
1503547395.5,286047002.4,N
1503547415.4,286047000.0,N
1503547435.2,286047001.1,N
1503547455.0,286047004.9,N
1503547455.9,286047004.9,N
1503547475.8,286047004.2,N
1503547495.6,286047001.6,N
1503547515.4,286047002.5,N
1503547535.2,286047004.3,N
1503547555.1,286047003.2,N
1503547556.0,286047003.2,N
1503547575.8,286047006.6,P
1503547595.7,286047000.0,N
1503547615.5,286047006.8,N
1503547635.3,286047008.4,P
1503547655.2,286046999.8,N
1503547675.9,286046999.6,N
1503547695.7,286046998.7,N
1503547715.6,286047002.2,N
1503547735.4,286047000.9,N
1503547755.2,286046999.5,N
1503547775.0,286046997.5,N
1503547776.0,286046997.5,N
1503547795.8,286047002.4,N
1503547815.6,286047000.1,N
1503547835.4,286047006.0,N
1503547855.3,286047003.1,N
1503547875.1,286047002.7,N
1503547895.8,286047002.0,N
1503547915.7,286046998.5,N
1503547935.5,286046998.3,N
1503547955.3,286046998.8,N
1503547975.2,286046997.0,N
1503547995.9,286046997.7,N
1503548015.7,286046999.0,N
1503548035.6,286047002.7,N
1503548055.4,286046999.0,N
1503548075.2,286046996.9,N
1503548095.0,286046996.9,N
1503548095.9,286046996.9,N
1503548115.8,286047000.3,N
1503548135.6,286047000.5,N
1503548155.4,286047000.0,N
1503548175.3,286047000.6,N
1503548195.1,286047002.2,N
1503548215.8,286047004.2,N
1503548235.7,286047005.3,N
1503548255.5,286047002.2,N
1503548275.3,286047003.6,N
1503548295.2,286047007.3,N
1503548315.9,286047006.2,N
1503548335.7,286047006.3,N
1503548355.6,286047005.5,N
1503548375.4,286047002.6,N
1503548395.2,286047003.7,N
1503548415.0,286047004.0,N
1503548415.9,286047004.0,N
1503548435.8,286047005.5,N
1503548455.6,286047010.8,P
1503548475.4,286047006.1,N
1503548495.3,286047006.4,N
1503548515.1,286047003.7,N
1503548535.8,286047004.5,N
1503548555.7,286047006.4,N
1503548575.5,286047004.7,N
1503548595.3,286047003.3,N
1503548615.2,286047007.6,P
1503548635.0,286047006.0,P
1503548635.9,286047006.0,P
1503548655.8,286047004.9,P
1503548675.6,286046998.1,N
1503548695.4,286046998.5,N
1503548715.3,286047001.0,N
1503548735.1,286047002.2,N
1503548736.0,286047002.2,N
1503548755.8,286047004.1,N
1503548775.6,286047002.5,N
1503548795.5,286046998.8,N
1503548815.3,286046996.7,N
1503548835.1,286046997.9,N
1503548855.9,286046997.9,N
1503548875.7,286047001.1,N
1503548895.5,286047001.9,N
1503548915.4,286046999.6,N
1503548935.2,286047001.2,N
1503548955.0,286046996.7,N
1503548955.9,286046996.7,N
1503548975.8,286047001.1,N
1503548995.6,286047001.0,N
1503549015.4,286046996.7,N
1503549035.3,286046995.7,N
1503549055.1,286046995.9,N
1503549056.0,286046995.9,N
1503549075.8,286046996.6,N
1503549095.7,286046996.6,N
1503549115.5,286047000.0,N
1503549135.3,286046999.7,N
1503549155.1,286047001.2,N
1503549175.9,286046999.4,N
1503549195.7,286046997.0,N
1503549215.5,286047002.7,N
1503549235.4,286047001.8,N
1503549255.2,286047002.7,N
1503549275.0,286047000.7,N
1503549275.9,286047000.7,N
1503549295.8,286047000.7,N
1503549315.6,286047000.5,N
1503549335.4,286047004.1,N
1503549355.3,286047003.1,N
1503549375.1,286047005.5,N
1503549376.0,286047005.5,N
1503549395.8,286047005.0,N
1503549415.7,286046999.8,N
1503549435.5,286047000.6,N
1503549455.3,286046998.9,N
1503549475.2,286047002.2,N
1503549495.9,286047001.8,N
1503549515.7,286047001.5,N
1503549535.5,286047003.7,N
1503549555.4,286047004.6,N
1503549575.2,286047006.6,N
1503549595.0,286047007.6,N
1503549595.9,286047007.6,N
1503549615.8,286047008.1,N
1503549635.6,286047007.5,N
1503549655.4,286047004.6,N
1503549675.3,286047009.1,P
1503549695.1,286047004.7,N
1503549715.8,286047004.5,N
1503549735.7,286047003.7,N
1503549755.5,286047005.3,N
1503549775.3,286047002.4,N
1503549795.2,286047001.6,N
1503549815.9,286047001.3,N
1503549835.7,286047005.3,N
1503549855.6,286047003.0,N
1503549875.4,286047004.2,N
1503549895.2,286047001.7,N
1503549915.1,286047001.3,N
1503549916.0,286047001.3,N
1503549935.8,286047003.6,N
1503549955.6,286047003.0,N
1503549975.5,286047007.1,P
1503549995.3,286047004.2,N
1503550015.1,286047002.4,N
1503550035.9,286047001.2,N
1503550055.7,286047000.9,N
1503550075.5,286046999.7,N
1503550095.3,286047002.0,N
1503550115.2,286047001.3,N
1503550135.0,286047007.6,P
1503550135.9,286047007.6,N
1503550155.8,286047005.4,N
1503550175.6,286046999.8,N
1503550195.4,286047002.6,N
1503550215.2,286046999.8,N
1503550235.1,286047000.1,N
1503550236.0,286047000.1,N
1503550255.8,286047002.0,N
1503550275.6,286046999.7,N
1503550295.5,286047002.7,N
1503550315.3,286047003.8,N
1503550335.1,286046998.1,N
1503550355.9,286047002.7,N
1503550375.7,286047003.6,N
1503550395.5,286047003.7,N
1503550415.4,286047003.6,N
1503550435.2,286047004.2,N
1503550455.0,286046998.8,N
1503550455.9,286046998.8,N
1503550475.8,286047001.2,N
1503550495.6,286047002.1,N
1503550515.4,286047000.7,N
1503550535.3,286047001.2,N
1503550555.1,286046999.7,N
1503550556.0,286046999.7,N
1503550575.8,286047002.0,N
1503550595.7,286047003.8,N
1503550615.5,286047001.8,N
1503550635.3,286047000.2,N
1503550655.1,286046997.2,N
1503550675.9,286046996.2,N
1503550695.7,286046999.6,N
1503550715.5,286047000.9,N
1503550735.4,286047001.0,N
1503550755.2,286046998.1,N
1503550775.0,286047004.3,N
1503550775.9,286047004.3,N
1503550795.8,286047002.1,N
